Regional Weather Roundup
Issued by NWS

Home | Current Version | Previous Version | Text Only | Print | Product List | Glossary Off
Versions: 1 2 3 4 5 6 7 8 9 10 11 12 13 14 15 16 17 18 19 20 21 22 23 24 25 26 27 28 29 30 31 32 33 34 35 36 37 38 39 40 41 42 43 44 45 46 47 48 49 50

000
ASUS43 KLMK 160510
RWRKY
KENTUCKY REGIONAL WEATHER ROUNDUP
NATIONAL WEATHER SERVICE LOUISVILLE KY
100 AM EDT TUE SEP 16 2014

NOTE "FAIR" INDICATES FEW OR NO CLOUDS BELOW 12,000 FEET
WITH NO SIGNIFICANT WEATHER AND/OR OBSTRUCTIONS TO VISIBILITY.

KYZ001>023-026-027-061>063-070>075-160600-
WESTERN AND SOUTH CENTRAL KENTUCKY

CITY           SKY/WX    TMP DP  RH WIND       PRES   REMARKS
PADUCAH        CLOUDY    69  64  84 W6        30.10S
HENDERSON      CLOUDY    68  61  77 W6        30.09R
OWENSBORO      CLOUDY    69  63  81 W7        30.08S
HOPKINSVILLE   CLOUDY    66  66 100 SW6       30.11S
BOWLING GREEN  CLOUDY    68  62  81 SW6       30.10F
GLASGOW        MOCLDY    64  64  99 CALM      30.11S
$$

KYZ024-025-028>034-038-045-046-053-160600-
NORTH CENTRAL KENTUCKY

CITY           SKY/WX    TMP DP  RH WIND       PRES   REMARKS
LOUISVILLE/SDF CLOUDY    67  59  75 SW6       30.08R
LOUISVILLE/LOU CLOUDY    64  61  90 CALM      30.08S
FORT KNOX      CLOUDY    66  61  82 SW6       30.08S
$$

KYZ035>037-039>044-047>052-055>060-089>105-160600-
NORTHEAST KENTUCKY

CITY           SKY/WX    TMP DP  RH WIND       PRES   REMARKS
LEXINGTON      CLOUDY    64  60  87 S6        30.09S
COVINGTON      CLOUDY    59  56  89 N6        30.11R FOG
FRANKFORT      CLOUDY    61  59  93 SW3       30.07F
$$

KYZ054-064>069-076>088-106>120-160600-
SOUTHEAST KENTUCKY

CITY           SKY/WX    TMP DP  RH WIND       PRES   REMARKS
JACKSON        CLOUDY    63  60  90 CALM      30.10R
LONDON         PTCLDY    65  60  84 S3        30.12F
SOMERSET       NOT AVBL
MIDDLESBORO    CLOUDY    63  63  98 CALM      30.14S
MONTICELLO     PTCLDY    64  63  97 CALM      30.13F
$$




USA.gov is the U.S. government's official web portal to all federal, state and local government web resources and services.